Tracking 19846 objects as of 18-Sep-2019
HD Live streaming from Space Station
objects crossing your sky now

FENGYUN 1C DEB

Track FENGYUN 1C DEB now!
10-day predictions


NORAD ID: 31044
Int'l Code: 1999-025BEN
Perigee: 546.9 km
Apogee: 629.3 km
Inclination: 99.4 °
Period: 96.3 minutes
Semi major axis: 6959 km
RCS: 0.0074 m2 (small)
Launch date: May 10, 1999
Source: People's Republic of China (PRC)
Launch site: Taiyaun Space Center, China (TSC)

Note: This is SATELLITE DEBRIS
aabbcc
Your satellite tracking list
Your tracking list is empty




NASA's NSSDC Master Catalog

Two Line Element Set (TLE):
1 31044U 99025BEN 19260.19032513 +.00003793 +00000-0 +33847-3 0  9999
2 31044 099.4283 240.2078 0059190 068.8549 291.8978 14.95454988666308
Source of the keplerian elements: AFSPC